Location: Bottom School (historical)
(37.9078°N, 89.3593°W)
Time: 21:38:55
(UTC+00:00)

UNISAT 6 - Pass Details

Date: 05 April 2023
Orbit: 599 x 679 km, 97.7° (Epoch: 08 June)

Event Time Altitude Azimuth Distance (km) Brightness Sun altitude
Rises 10:02:26 0° 141° (SE) 2,923 ? -18.7°
Reaches altitude 10° 10:04:49 10° 130° (SE) 2,033 ? -18.3°
Maximum altitude 10:08:40 30° 70° (ENE) 1,176 ? -17.6°
Drops below altitude 10° 10:12:37 10° 10° (N) 2,089 ? -16.9°
Sets 10:15:05 0° 360° (N) 3,018 ? -16.4°
